Farmingdale, NY

4:37 AM EST on January 22, 2017 (GMT -0500)
Republic

Weather History for KFRG - April, 2014

Change the Weather History Date:

Friday, April 18, 2014

  Actual Average Record
Temperature  
Mean Temperature 38 °F -  
Max Temperature 46 °F 58 °F 87 °F (2002)
Min Temperature 33 °F 41 °F 33 °F (2003)
Degree Days  
Heating Degree Days 26    
Moisture  
Dew Point 30 °F    
Average Humidity 71    
Maximum Humidity 82    
Minimum Humidity 60    
Precipitation  
Precipitation 0.00 in - - ()
Sea Level Pressure  
Sea Level Pressure 30.47 in    
Wind  
Wind Speed 5 mph (ENE)    
Max Wind Speed 9 mph    
Max Gust Speed -    
Visibility 10 miles    
Events      
Averages and records for this station are not official NWS values.
T = Trace of Precipitation, MM = Missing Value Source: NWS Daily Summary

Daily Weather History Graph

Daily Weather History Graph

Search for Another Location

Airport or City:

Trip Planner

Search our weather history database for the weather conditions in past years. The results will help you decide how hot, cold, wet, or windy it might be!

Date:

Astronomy

Apr. 18, 2014 Rise Set
Actual Time 6:10 AM EDT 7:36 PM EDT
Civil Twilight 5:41 AM EDT 8:04 PM EDT
Nautical Twilight 5:07 AM EDT 8:39 PM EDT
Astronomical Twilight 4:31 AM EDT 9:15 PM EDT
Moon 11:19 PM EDT (4/18) 8:29 AM EDT (4/18)
Length of Visible Light 14h 23m
Length of Day
13h 25m
Waning Gibbous, 87% of the Moon is Illuminated
Apr 18
Waning Gibbous
Apr 22
Last Quarter
Apr 29
New
May 6
First Quarter
May 14
Full

Hourly Weather History & Observations

Time (EDT) Temp. Windchill Dew Point Humidity Pressure Visibility Wind Dir Wind Speed Gust Speed Precip Events Conditions
12:53 AM 34.0 °F 31.0 °F 28.0 °F 79% 30.61 in 10.0 mi NE 3.5 mph - N/A   Clear
1:53 AM 34.0 °F 31.0 °F 27.0 °F 75% 30.61 in 10.0 mi NE 3.5 mph - N/A   Clear
2:53 AM 33.1 °F 30.0 °F 27.0 °F 78% 30.59 in 10.0 mi NE 3.5 mph - N/A   Mostly Cloudy
3:53 AM 34.0 °F 28.8 °F 28.0 °F 79% 30.57 in 10.0 mi NNE 5.8 mph - N/A   Overcast
4:53 AM 35.1 °F 27.9 °F 27.0 °F 72% 30.52 in 10.0 mi ENE 9.2 mph - N/A   Overcast
5:53 AM 34.0 °F 29.8 °F 27.0 °F 75% 30.52 in 10.0 mi NE 4.6 mph - N/A   Overcast
6:53 AM 34.0 °F 31.0 °F 27.0 °F 75% 30.53 in 10.0 mi ENE 3.5 mph - N/A   Overcast
7:53 AM 35.1 °F 31.0 °F 27.0 °F 72% 30.55 in 10.0 mi ENE 4.6 mph - N/A   Overcast
8:53 AM 36.0 °F - 28.0 °F 73% 30.57 in 10.0 mi Calm Calm - N/A   Overcast
9:53 AM 37.9 °F 35.5 °F 28.9 °F 70% 30.54 in 10.0 mi NNE 3.5 mph - N/A   Overcast
10:53 AM 41.0 °F 36.4 °F 30.0 °F 65% 30.50 in 10.0 mi Variable 6.9 mph - N/A   Mostly Cloudy
11:12 AM 41.0 °F 38.0 °F 30.2 °F 65% 30.49 in 10.0 mi North 4.6 mph - N/A   Mostly Cloudy
11:53 AM 43.0 °F 39.5 °F 30.9 °F 62% 30.48 in 10.0 mi NE 5.8 mph - N/A   Scattered Clouds
12:53 PM 43.0 °F - 30.0 °F 60% 30.48 in 10.0 mi Calm Calm - N/A   Partly Cloudy
1:53 PM 44.1 °F 40.8 °F 32.0 °F 63% 30.45 in 10.0 mi Variable 5.8 mph - N/A   Clear
2:53 PM 44.1 °F 40.1 °F 32.0 °F 63% 30.43 in 10.0 mi South 6.9 mph - N/A   Clear
3:53 PM 44.1 °F 42.5 °F 32.0 °F 63% 30.38 in 10.0 mi Variable 3.5 mph - N/A   Clear
4:53 PM 44.1 °F 39.0 °F 33.1 °F 65% 30.37 in 10.0 mi South 9.2 mph - N/A   Clear
5:53 PM 42.1 °F 37.7 °F 32.0 °F 67% 30.36 in 10.0 mi SSW 6.9 mph - N/A   Clear
6:53 PM 41.0 °F 37.1 °F 32.0 °F 70% 30.34 in 10.0 mi South 5.8 mph - N/A   Clear
8:53 PM 39.9 °F 35.1 °F 34.0 °F 79% 30.32 in 10.0 mi SW 6.9 mph - N/A   Clear
9:53 PM 39.9 °F 35.8 °F 34.0 °F 79% 30.32 in 10.0 mi SW 5.8 mph - N/A   Clear
11:53 PM 39.0 °F 34.0 °F 34.0 °F 82% 30.29 in 10.0 mi SSW 6.9 mph - N/A   Clear